EW2817 Weather Reports


time (UTC)temp
C
wind
direction
speed
KPH
gust
KPH
rain 1hr
cm
rain 24hr
cm
rain mn
cm
humidity
%
barometer
mb
20260509230403 22 0 0.0 0.0 0.00 0.00 0.00 74 986.6
20260509224904 22 0 0.0 0.0 0.00 0.00 0.00 72 986.5
20260509221901 22 0 0.0 0.0 0.00 0.00 0.00 73 986.6
20260509220357 22 0 0.0 0.0 0.00 0.00 0.00 71 986.5
20260509214858 22 0 0.0 0.0 0.00 0.00 0.00 72 986.5
20260509213355 22 0 0.0 0.0 0.00 0.00 0.00 72 986.5
20260509211855 22 0 0.0 0.0 0.00 0.00 0.00 70 986.5
20260509210356 22 0 0.0 0.0 0.00 0.00 0.00 71 986.2
20260509204853 22 0 0.0 0.0 0.00 0.00 0.00 68 986.5
20260509201850 22 0 0.0 0.0 0.00 0.00 0.00 69 986.5
20260509200349 22 0 0.0 0.0 0.00 0.00 0.00 71 986.6
20260509194849 22 0 0.0 0.0 0.00 0.00 0.00 69 986.7
20260509193349 22 0 0.0 0.0 0.00 0.00 0.00 68 986.9
20260509191849 22 0 0.0 0.0 0.00 0.00 0.00 68 986.9
20260509190349 22 0 0.0 0.0 0.00 0.00 0.00 68 987.0
20260509184849 22 0 0.0 0.0 0.00 0.00 0.00 68 987.1
20260509183347 22 0 0.0 0.0 0.00 0.00 0.00 66 987.2
20260509181845 23 0 0.0 0.0 0.00 0.00 0.00 62 987.2
20260509180346 24 0 0.0 0.0 0.00 0.00 0.00 58 987.4
20260509174843 23 0 0.0 0.0 0.00 0.00 0.00 61 987.6
20260509173341 23 0 0.0 0.0 0.00 0.00 0.00 62 987.6
20260509170339 22 0 0.0 0.0 0.00 0.00 0.00 63 988.2
20260509163339 22 0 0.0 0.0 0.00 0.00 0.00 63 988.6
20260509161837 22 0 0.0 0.0 0.00 0.00 0.00 65 988.5
20260509160332 22 0 0.0 0.0 0.00 0.00 0.00 65 988.6
20260509154831 22 0 0.0 0.0 0.00 0.00 0.00 66 988.5
20260509150326 20 0 0.0 0.0 0.00 0.00 0.00 70 988.6
20260509143325 18 0 0.0 0.0 0.00 0.00 0.00 76 989.3
20260509141824 18 0 0.0 0.0 0.00 0.00 0.00 79 989.3
20260509140324 17 0 0.0 0.0 0.00 0.00 0.00 82 989.8
20260509134825 17 0 0.0 0.0 0.00 0.00 0.00 84 990.3
20260509133324 16 0 0.0 0.0 0.00 0.00 0.00 89 990.2
20260509131819 15 0 0.0 0.0 0.00 0.00 0.00 92 990.3
20260509130316 14 0 0.0 0.0 0.00 0.00 0.00 93 990.2
20260509123314 13 0 0.0 0.0 0.00 0.00 0.00 95 990.1
20260509121813 12 0 0.0 0.0 0.00 0.00 0.00 95 989.7
20260509120312 12 0 0.0 0.0 0.00 0.00 0.00 95 989.8
20260509114812 11 0 0.0 0.0 0.00 0.00 0.00 95 990.2
20260509111809 11 0 0.0 0.0 0.00 0.00 0.00 95 990.0
20260509110308 11 0 0.0 0.0 0.00 0.00 0.00 94 989.7
20260509103308 11 0 0.0 0.0 0.00 0.00 0.00 94 989.0
20260509101806 11 0 0.0 0.0 0.00 0.00 0.00 94 989.1
20260509100305 11 0 0.0 0.0 0.00 0.00 0.00 94 989.2
20260509093302 11 0 0.0 0.0 0.00 0.00 0.00 93 989.4
20260509091802 11 0 0.0 0.0 0.00 0.00 0.00 92 989.5
20260509090300 11 0 0.0 0.0 0.00 0.00 0.00 92 989.5
20260509084802 11 0 0.0 0.0 0.00 0.00 0.00 92 989.6
20260509083300 11 0 0.0 0.0 0.00 0.00 0.00 91 989.8
20260509081803 11 0 0.0 0.0 0.00 0.00 0.00 90 989.9
20260509080256 12 0 0.0 0.0 0.00 0.00 0.00 89 990.0
20260509074755 12 0 0.0 0.0 0.00 0.00 0.00 88 989.8
20260509073256 12 0 0.0 0.0 0.00 0.00 0.00 87 989.8
20260509071755 12 0 0.0 0.0 0.00 0.00 0.00 86 990.0
20260509070255 12 0 0.0 0.0 0.00 0.00 0.00 86 989.9
20260509064753 13 0 0.0 0.0 0.00 0.00 0.00 85 990.0
20260509063253 13 0 0.0 0.0 0.00 0.00 0.00 84 990.3
20260509061753 13 0 0.0 0.0 0.00 0.00 0.00 83 990.7
20260509060254 13 0 0.0 0.0 0.00 0.00 0.00 81 990.7
20260509054753 13 0 0.0 0.0 0.00 0.00 0.00 81 990.9
20260509053253 13 0 0.0 0.0 0.00 0.00 0.00 80 991.1
20260509043250 13 0 0.0 0.0 0.00 0.00 0.00 76 991.2
20260509041749 13 0 0.0 0.0 0.00 0.00 0.00 76 991.1
20260509040247 14 0 0.0 0.0 0.00 0.00 0.00 73 991.2
20260509033246 14 0 0.0 0.0 0.00 0.00 0.00 72 991.2
20260509031745 14 0 0.0 0.0 0.00 0.00 0.00 71 991.2
20260509030242 14 0 0.0 0.0 0.00 0.00 0.00 69 991.4
20260509024742 14 0 0.0 0.0 0.00 0.00 0.00 70 991.6
20260509023239 14 0 0.0 0.0 0.00 0.00 0.00 69 991.8
20260509020238 15 0 0.0 0.0 0.00 0.00 0.00 69 991.8
20260509013237 15 0 0.0 0.0 0.00 0.00 0.00 70 991.7
20260509011732 15 0 0.0 0.0 0.00 0.00 0.00 69 991.5
20260509010232 15 0 0.0 0.0 0.00 0.00 0.00 67 991.4
20260509004732 15 0 0.0 0.0 0.00 0.00 0.00 68 991.1
20260509003231 16 0 0.0 0.0 0.00 0.00 0.00 67 991.1
20260509001728 16 0 0.0 0.0 0.00 0.00 0.00 65 990.9
20260509000227 17 0 0.0 0.0 0.00 0.00 0.00 62 991.0
20260508234728 18 0 0.0 0.0 0.00 0.00 0.00 63 991.1
20260508233228 18 0 0.0 0.0 0.00 0.00 0.00 59 990.9
20260508231726 18 0 0.0 0.0 0.00 0.00 0.00 58 990.9